Conejos, Valles Caldera, New Mexico Weather observations

Data are for 10 minute period ending at time listed.
 Day   Time   Solar   Ave.   Ave.  Ave.  Vector  Max.   Baro.   Total    
  of    of     Rad.   Air    Rel.  Wind   Wind   Wind  Press.  Precip.   
Year   Day            Temp.  Hum.  Speed  Dir.   Gust                    
2017   (MST)  Kw/m2    F      %     mph   deg.    mph    mb.     in.     
-------------------------------------------------------------------------
 289   11:30   0.61   58.1    18    2.9   175     7.2   99999.0    0.00 
 289   11:40   0.61   58.8    19    2.2   299     4.8   99999.0    0.00 
 289   11:50   0.61   58.4    21    2.4   340     4.2   99999.0    0.00 
 289   12:00   0.61   58.7    21    3.4   153     7.2   99999.0    0.00 
 289   12:10   0.60   58.1    21    3.0   149     5.4   99999.0    0.00 
 289   12:20   0.60   58.4    21    3.2   183     7.8   99999.0    0.00 
 289   12:30   0.54   59.5    20    1.9   334     3.6   99999.0    0.00 
 289   12:40   0.59   58.7    20    1.6   281     4.8   99999.0    0.00 
 289   12:50   0.58   58.1    20    2.4   295     5.4   99999.0    0.00 
 289   13:00   0.57   58.2    19    2.2   293     4.2   99999.0    0.00 
 289   13:10   0.56   57.3    19    2.6   324     4.8   99999.0    0.00 
 289   13:20   0.39   58.3    17    2.3   257     4.8   99999.0    0.00 
 289   13:30   0.04   56.9    19    2.8   308     4.8   99999.0    0.00 
 289   13:40   0.04   56.5    19    2.3   297     4.8   99999.0    0.00 
 289   13:50   0.06   56.7    19    2.9   225     6.0   99999.0    0.00 
 289   14:00   0.05   57.3    18    2.6   319     4.8   99999.0    0.00 
 289   14:10   0.05   57.4    19    2.6   346     6.0   99999.0    0.00 
 289   14:20   0.27   58.7    19    2.2   253     4.8   99999.0    0.00 
 289   14:30   0.19   58.9    19    2.1   322     3.9   99999.0    0.00 
 289   14:40   0.32   59.3    18    2.4   281     4.2   99999.0    0.00 
 289   14:50   0.22   60.0    17    2.2   176     4.8   99999.0    0.00 
 289   15:00   0.06   59.3    17    2.1   327     4.2   99999.0    0.00 
 289   15:10   0.07   58.8    18    1.8   351     4.2   99999.0    0.00 
 289   15:20   0.05   58.1    18    1.6   168     9.0   99999.0    0.00 
 289   15:30   0.04   57.9    18    2.3   165     4.2   99999.0    0.00 
 289   15:40   0.04   58.0    18    1.7   136     4.2   99999.0    0.00 
 289   15:50   0.41   57.9    18    1.9     5     3.6   99999.0    0.00 
 289   16:00   0.03   57.7    19    1.5    19     3.6   99999.0    0.00 
 289   16:10   0.03   56.9    19    1.2    36     3.0   99999.0    1.11 
 289   16:20   0.02   59.7    32    1.0    62     2.4   99999.0    0.01 
 289   16:30   0.02   59.1    33    0.8   284     4.2   99999.0    0.00 
 289   16:40   0.01   54.3    23    0.1   194     1.2   99999.0    0.00 
 289   16:50   0.01   53.2    23    0.3   184     1.8   99999.0    0.00 
 289   17:00   0.01   52.5    24    0.0   203     1.2   99999.0    0.00 
 289   17:10   0.01   52.0    24    0.1   157     1.8   99999.0    0.00 
 289   17:20   0.01   51.5    24    0.0     0     0.0   99999.0    0.00 
 289   17:30   0.00   50.6    26    0.0   208     1.2   99999.0    0.00 
 289   17:40   0.00   48.6    29    0.0     0     0.0   99999.0    0.00 
 289   17:50   0.00   47.1    31    0.0   260     1.2   99999.0    0.00 
 289   18:00   0.00   45.9    32    0.1   159     1.8   99999.0    0.00 
 289   18:10   0.00   45.2    32    0.0     0     0.0   99999.0    0.00 
 289   18:20   0.00   44.4    32    0.0     0     0.0   99999.0    0.00 
 289   18:30   0.00   43.8    32    0.0     0     0.0   99999.0    0.00 
 289   18:40   0.00   43.5    32    0.0   257     1.2   99999.0    0.00 
 289   18:50   0.00   43.4    32    0.0   229     1.2   99999.0    0.00 
 289   19:00   0.00   43.2    32    0.0     0     0.0   99999.0    0.00 
 289   19:10   0.00   42.7    33    0.0     0     0.0   99999.0    0.00 
 289   19:20   0.00   42.4    34    0.0     0     0.0   99999.0    0.00 
 289   19:30   0.00   42.2    34    0.0     0     0.0   99999.0    0.00 
 289   19:40   0.00   41.8    35    0.0     0     0.0   99999.0    0.00 
 289   19:50   0.00   41.4    37    0.2   210     1.2   99999.0    0.00 
 289   20:00   0.00   41.2    37    0.1   202     1.2   99999.0    0.00 
 289   20:10   0.00   41.5    38    0.2   235     1.2   99999.0    0.00 
 289   20:20   0.00   41.6    37    0.5   194     2.4   99999.0    0.00 
 289   20:30   0.00   41.3    36    0.0   244     1.2   99999.0    0.00 
 289   20:40   0.00   41.3    35    0.0     0     0.0   99999.0    0.00 
 289   20:50   0.00   41.5    34    0.0     0     0.0   99999.0    0.00 
 289   21:00   0.00   41.5    35    0.1   232     1.2   99999.0    0.00 
 289   21:10   0.00   41.5    35    0.0   220     1.2   99999.0    0.00 
 289   21:20   0.00   41.9    35    0.0   222     1.2   99999.0    0.00 
 289   21:30   0.00   41.4    34    0.0     0     0.0   99999.0    0.00 
 289   21:40   0.00   41.7    36    0.1   230     1.2   99999.0    0.00 
 289   21:50   0.00   42.2    34    0.0     0     0.0   99999.0    0.00 
 289   22:00   0.00   41.6    33    0.0     0     0.0   99999.0    0.00 
 289   22:10   0.00   41.4    36    0.0     0     0.0   99999.0    0.00 
 289   22:20   0.00   41.9    37    0.0     0     0.0   99999.0    0.00 
 289   22:30   0.00   43.9    35    0.5   290     2.4   99999.0    0.00 
 289   22:40   0.00   42.2    36    0.2   321     1.8   99999.0    0.00 
 289   22:50   0.00   41.6    37    0.0     0     0.0   99999.0    0.00 
 289   23:00   0.00   41.2    37    0.0     0     0.0   99999.0    0.00 
 289   23:10   0.00   41.1    36    0.4   246     1.8   99999.0    0.00 
 289   23:20   0.00   41.1    38    0.0     0     0.0   99999.0    0.00 
 289   23:30   0.00   43.4    32    0.0     0     0.0   99999.0    0.00 
 289   23:40   0.00   44.7    30    0.0   328     1.2   99999.0    0.00 
 289   23:50   0.00   44.6    31    0.0     0     0.0   99999.0    0.00 
 290    0:00   0.00   42.9    34    0.0     0     0.0   99999.0    0.00 
 290    0:10   0.00   41.1    37    0.1   245     1.2   99999.0    0.00 
 290    0:20   0.00   40.3    38    0.0   242     1.2   99999.0    0.00 
 290    0:30   0.00   40.5    37    0.1   239     1.2   99999.0    0.00 
 290    0:40   0.00   40.9    37    0.2   262     1.5   99999.0    0.00 
 290    0:50   0.00   40.2    38    0.0   168     1.2   99999.0    0.00 
 290    1:00   0.00   39.4    38    0.0     0     0.0   99999.0    0.00 
 290    1:10   0.00   39.3    37    0.0     0     0.0   99999.0    0.00 
 290    1:20   0.00   39.4    36    0.0     0     0.0   99999.0    0.00 
 290    1:30   0.00   39.2    34    0.2   240     1.8   99999.0    0.00 
 290    1:40   0.00   39.4    33    0.3   236     1.5   99999.0    0.00 
 290    1:50   0.00   39.9    31    0.3   245     1.8   99999.0    0.00 
 290    2:00   0.00   40.0    29    0.2   244     1.8   99999.0    0.00 
 290    2:10   0.00   40.3    26    0.2   240     1.2   99999.0    0.00 
 290    2:20   0.00   40.1    26    0.5   245     1.8   99999.0    0.00 
 290    2:30   0.00   40.7    25    0.5   253     1.2   99999.0    0.00 
 290    2:40   0.00   40.5    24    0.3   238     1.2   99999.0    0.00 
 290    2:50   0.00   40.2    24    0.4   246     1.8   99999.0    0.00 
 290    3:00   0.00   40.3    23    0.3   235     1.2   99999.0    0.00 
 290    3:10   0.00   40.2    24    0.2   246     1.8   99999.0    0.00 
 290    3:20   0.00   40.6    24    0.5   241     1.8   99999.0    0.00 
 290    3:30   0.00   40.5    24    0.1   241     1.2   99999.0    0.00 
 290    3:40   0.00   40.1    24    0.1   225     1.2   99999.0    0.00 
 290    3:50   0.00   39.9    26    0.1   210     1.2   99999.0    0.00 
 290    4:00   0.00   39.9    26    0.2   243     1.2   99999.0    0.00 
 290    4:10   0.00   39.3    25    0.1   234     1.2   99999.0    0.00 
 290    4:20   0.00   39.5    25    0.0     0     0.0   99999.0    0.00 
 290    4:30   0.00   39.7    26    0.0     0     0.0   99999.0    0.00 
 290    4:40   0.00   39.8    25    0.8   238     1.8   99999.0    0.00 
 290    4:50   0.00   39.8    25    0.5   240     1.8   99999.0    0.00 
 290    5:00   0.00   39.5    26    0.0   232     1.2   99999.0    0.00 
 290    5:10   0.00   38.9    27    0.0     0     0.0   99999.0    0.00 
 290    5:20   0.00   38.6    29    0.0     0     0.0   99999.0    0.00 
 290    5:30   0.00   38.9    29    0.0     0     0.0   99999.0    0.00 
 290    5:40   0.00   39.3    27    0.0     0     0.0   99999.0    0.00 
 290    5:50   0.00   39.3    28    0.3   247     1.8   99999.0    0.00 
 290    6:00   0.00   39.5    28    0.5   243     1.2   99999.0    0.00 
 290    6:10   0.00   39.1    28    0.0     0     0.0   99999.0    0.00 
 290    6:20   0.00   39.2    31    0.3   237     1.2   99999.0    0.00 
 290    6:30   0.01   39.6    31    0.1   224     1.2   99999.0    0.00 
 290    6:40   0.01   38.5    31    0.1   192     1.2   99999.0    0.00 
 290    6:50   0.02   38.4    32    0.0     0     0.0   99999.0    0.00 
 290    7:00   0.02   39.1    33    0.0     0     0.0   99999.0    0.00 
 290    7:10   0.03   39.5    35    0.0     0     0.0   99999.0    0.00 
 290    7:20   0.04   39.9    38    0.0     0     0.0   99999.0    0.00 
 290    7:30   0.04   40.7    39    0.2   329     1.8   99999.0    0.00 
 290    7:40   0.17   42.4    36    1.4   331     2.4   99999.0    0.00 
 290    7:50   0.14   44.3    34    1.0   339     1.8   99999.0    0.00 
 290    8:00   0.14   45.9    34    1.2   345     2.4   99999.0    0.00 
 290    8:10   0.24   48.2    30    1.3   334     2.4   99999.0    0.00 
 290    8:20   0.40   50.3    25    1.2   350     2.4   99999.0    0.00 
 290    8:30   0.18   51.2    25    1.3   322     3.6   99999.0    0.00 
 290    8:40   0.17   52.6    22    1.7   320     3.0   99999.0    0.00 
 290    8:50   0.09   53.5    21    1.8   304     3.6   99999.0    0.00 
 290    9:00   0.11   54.0    23    2.2   334     4.2   99999.0    0.00 
 290    9:10   0.06   54.0    23    1.8   335     3.6   99999.0    0.00 
 290    9:20   0.09   54.5    23    2.1   330     4.2   99999.0    0.00 
 290    9:30   0.27   54.8    22    2.6   319     4.8   99999.0    0.00 
 290    9:40   0.48   55.3    22    2.0   338     3.6   99999.0    0.00 
 290    9:50   0.61   56.0    22    2.2   189     6.0   99999.0    0.00 
 290   10:00   0.56   56.1    22    2.3   304     4.8   99999.0    0.00 
 290   10:10   0.54   55.4    24    2.2   165     4.8   99999.0    0.00 
 290   10:20   0.61   55.9    24    2.4   357     4.2   99999.0    0.00 
 290   10:30   0.60   55.6    24    1.7   214     6.0   99999.0    0.00 
 290   10:40   0.72   56.2    22    2.6   268     5.4   99999.0    0.00 
 290   10:50   0.71   57.0    20    2.4   285     4.8   99999.0    0.00 
 290   11:00   0.70   57.3    19    2.6   248     5.4   99999.0    0.00 
 290   11:10   0.75   58.1    18    2.5   250     4.8   99999.0    0.00 
 290   11:20   0.78   58.2    19    3.2   164     8.4   99999.0    0.00 

Return to Conejos, Valles Caldera graphs page.


Western Regional Climate Center,wrcc@dri.edu